Tracking 29892 objects as of 21-Nov-2024
HD Live streaming from Space Station
objects crossing your sky now

STARLINK-30562

Track STARLINK-30562 now!
10-day predictions
STARLINK-30562 is classified as:


NORAD ID: 58033
Int'l Code: 2023-156F
Perigee: 557.5 km
Apogee: 560.2 km
Inclination: 53.2 °
Period: 95.7 minutes
Semi major axis: 6929 km
RCS: Unknown
Launch date: October 9, 2023
Source: United States (US)
Launch site: AIR FORCE WESTERN TEST RANGE (AFWTR)
Your satellite tracking list
Your tracking list is empty




NASA's NSSDC Master Catalog

Two Line Element Set (TLE):
1 58033U 23156F   24325.55921077  .00000288  00000-0  39498-4 0  9993
2 58033  53.1581 169.0273 0001944  93.1123 267.0089 15.04926391 63033
Source of the keplerian elements: AFSPC